Flag for Germany Weather past 2 weeks in Lüneburg, Lower Saxony, Germany

Now
55 °F

Sprinkles. Broken clouds.


Feels Like: 51 °F
Forecast: 38 / 62 °F
Wind: 16 mph from Northwest

Location: Fassberg

Current Time: May 28, 2015 at 4:36:20 PM

Latest Report: May 28, 2015 at 3:57 PM


Visibility: 4 mi

Pressure: 29.86 "Hg

Humidity: 72%

Dew point: 46 °F

Location of LüneburgLocation

Historic Weather in Lüneburg — Graph

°F

Lüneburg temperature yesterday

Maximum temperature yesterday: 61 °F (at 3:20 PM)
Minimum temperature yesterday: 41 °F (at 12:20 AM)
Average temperature yesterday: 51 °F

Past Weeks' High & Low Weather Summary

 TemperatureHumidityPressure
High68 °F (May 24, 4:20 PM)100% (May 15, 5:20 AM)30.30 "Hg (May 15, 5:20 AM)
Low32 °F (May 16, 5:20 AM)36% (May 19, 4:20 PM)29.59 "Hg (May 18, 9:20 PM)
Average51 °F70%30.03 "Hg
* Reported May 13 3:20 PM — May 28 3:20 PM, Lüneburg, Weather by CustomWeather, © 2015

Note: Actual official high and low records may vary slightly from our data, if they occured in-between our weather recording intervals... More about our weather records

Advertising

Lüneburg weather history for previous 24 hours

 ConditionsComfort  
Time TempWeatherWind HumidityBarometerVisibility
3:20 PM
Thu, May 28
63 °FBroken clouds.22 mph56%29.83 "HgN/A
2:20 PM64 °FBroken clouds.23 mph52%29.86 "HgN/A
1:20 PM64 °FBroken clouds.16 mph49%29.86 "HgN/A
12:20 PM61 °FBroken clouds.18 mph55%29.86 "HgN/A
11:20 AM64 °FBroken clouds.15 mph49%29.86 "HgN/A
10:20 AM59 °FScattered clouds.14 mph55%29.89 "HgN/A
9:20 AM57 °FPartly sunny.12 mph55%29.89 "HgN/A
8:20 AM55 °FPartly sunny.9 mph55%29.92 "HgN/A
7:20 AM52 °FPartly sunny.8 mph62%29.92 "HgN/A
6:20 AM50 °FPartly sunny.6 mph67%29.92 "HgN/A
5:20 AM50 °FCool.No wind67%29.95 "Hg5 mi
4:20 AM50 °FCool.No wind67%29.98 "Hg5 mi
3:20 AM50 °FCool.No wind67%29.98 "Hg5 mi
2:20 AM50 °FCool.No wind67%30.01 "Hg5 mi
1:20 AM52 °FCool.No wind62%30.04 "Hg6 mi
12:20 AM52 °FCool.7 mph67%30.04 "Hg5 mi
11:20 PM
Wed, May 27
52 °FCool.5 mph72%30.07 "Hg5 mi
10:20 PM52 °FCool.3 mph67%30.09 "Hg6 mi
9:20 PM54 °FCool.5 mph63%30.09 "Hg6 mi
8:20 PM55 °FPartly sunny.7 mph59%30.09 "HgN/A
7:20 PM57 °FPartly sunny.8 mph51%30.12 "HgN/A
6:20 PM57 °FPartly sunny.9 mph51%30.12 "HgN/A
5:20 PM57 °FPartly sunny.12 mph48%30.15 "HgN/A
5:00 PM57 °FPartly sunny.14 mph51%30.15 "HgN/A
4:20 PM57 °FPartly sunny.12 mph51%30.15 "HgN/A
Weather by CustomWeather, © 2015

See weather overviewHow to use our weather pages